User: anonymous   Login
Location: Lussas
(44.6119°N, 4.4726°E)
Time: 11:35:47
(UTC+00:00)
Language:

CENTAUR R/B - Orbit

View from above orbital plane
View from above orbital plane
View from above satellite
View from above satellite

Ground track
Ground track

The orbit data is extracted from the following two-line orbital elements,

1 26906U 01040B   21060.17584203 0.00000000  00000-0  00000-0 0    00
2 26906  63.4559 101.0563 0470584 339.4618  20.5381 13.44075174    00
Epoch (UTC): 01 March 2021 04:13:12
Eccentricity: 0.0470584
inclination: 63.4559°
perigee height: 742 km
apogee height: 1446 km
right ascension of ascending node: 101.0563°
argument of perigee: 339.4618°
revolutions per day: 13.44075174
mean anomaly at epoch: 20.5381°
orbit number at epoch: 0

The dashed part of the orbit path shows where the satellite is in the earth's shadow,  

DLR